Regional Weather Roundup
Issued by NWS

Home | Current Version | Previous Version | Graphics & Text | Print | Product List | Glossary On
Versions: 1 2 3 4 5 6 7 8 9 10 11 12 13 14 15 16 17 18 19 20 21 22 23 24 25 26
511
ASUS45 KTFX 211710
RWRMT
MONTANA REGIONAL WEATHER ROUNDUP
NATIONAL WEATHER SERVICE GREAT FALLS MT
1100 AM MDT THU MAY 21 2015

NOTE: "FAIR" INDICATES FEW OR NO CLOUDS BELOW 12000 FEET WITH NO
SIGNIFICANT WEATHER AND/OR OBSTRUCTIONS TO VISIBILITY.

MTZ001>007-043-211800-
WEST OF THE DIVIDE

CITY           SKY/WX    TMP DP  RH WIND       PRES   REMARKS
KALISPELL      SUNNY     65  35  33 VRB3      29.96F
MISSOULA       SUNNY     65  35  33 VRB6      29.96F
BUTTE          PTSUNNY   55  37  50 S7        30.04F
MULLAN PASS    SUNNY     55  32  41 VRB3      30.02F
DEER LODGE       N/A     61  41  48 CALM      30.04F
EUREKA           N/A     63  34  34 CALM      29.98F
HAMILTON         N/A     63  37  39 NE5       29.96F
LIBBY            N/A     66  36  32 N3        29.95F
RONAN            N/A     66  37  34 NW5       30.02S
$$

MTZ008-052>055-211800-
SOUTHWEST MONTANA

CITY           SKY/WX    TMP DP  RH WIND       PRES   REMARKS
BOZEMAN        PTSUNNY   57  40  52 CALM      30.05F
DILLON         PTSUNNY   57  42  57 NE7       30.03F
W YELLOWSTONE  CLOUDY    48  37  66 S7        30.10F
THREE FORKS      N/A     54  54 100 CALM      30.04F
TWIN BRIDGES     N/A     57  38  49 NW10      30.02F
$$

MTZ009-010-012-014-046-048-049-054-211800-
EAST SLOPES AND CENTRAL MONTANA

CITY           SKY/WX    TMP DP  RH WIND       PRES   REMARKS
CUT BANK       SUNNY     56  33  42 SE8       30.05F
GREAT FALLS    SUNNY     60  38  43 SE7       30.04S
MALMSTROM AFB  SUNNY     58  37  45 E3        30.05F
HELENA         SUNNY     59  36  42 CALM      30.02F
$$

MTZ011-013-016-021-045-047-050-051-211800-
NORTH CENTRAL MONTANA

CITY           SKY/WX    TMP DP  RH WIND       PRES   REMARKS
HAVRE          SUNNY     64  33  31 SE15      30.07F
LEWISTOWN      SUNNY     62  38  40 E15       30.06F
N BAR RANCH    FAIR      55  37  50 SE10      30.13F
CHINOOK          N/A     64  28  25 E18G25    30.09F
FORT BENTON      N/A     63  36  36 E7        30.06F
$$

MTZ017>020-022>027-061-062-211800-
NORTHEAST MONTANA

CITY           SKY/WX    TMP DP  RH WIND       PRES   REMARKS
GLASGOW        SUNNY     63  33  32 SE8G18    30.18F
JORDAN           N/A     62  29  28 SE18G29   30.16
SIDNEY         SUNNY     64  34  32 CALM      30.22F
WOLF POINT     SUNNY     67  34  29 E8        30.20F
MALTA            N/A     64  34  32 E14       30.11F
PLENTYWOOD       N/A     70  27  19 NE6       30.19F
POPLAR           N/A     66  30  26 E6        30.21F
$$

MTZ028>42-056>058-211800-
SOUTHCENTRAL AND SOUTHEAST MONTANA

CITY           SKY/WX    TMP DP  RH WIND       PRES   REMARKS
BAKER          SUNNY     63  32  31 SE12      30.22F
BILLINGS       MOSUNNY   55  39  54 NE5       30.11F
LIVINGSTON     CLOUDY    55  41  59 E10       30.07F
MILES CITY     SUNNY     61  31  32 SE15      30.18F
BIG TIMBER       N/A     52  41  66 E6        30.10F
FORSYTH          N/A     61  28  29 E16G23    30.14F
LAUREL           N/A     55  39  54 NE2       30.09F
ROUNDUP          N/A     58  35  42 NE5       30.02F
$$

REGIONAL REPORTS...DAKOTAS

CITY           SKY/WX    TMP DP  RH WIND       PRES   REMARKS
WILLISTON      SUNNY     67  38  34 SE3       30.20F
MINOT          SUNNY     66  37  34 VRB3      30.16S
DICKINSON      SUNNY     66  30  26 N5        30.20F
BEACH          FAIR      63  28  27 SE9G17    30.23F
CROSBY         FAIR      68  28  22 N7        30.19S
WATFORD CITY   FAIR      66  30  26 N8        30.18F
BISMARCK       SUNNY     71  34  25 NW7       30.18F
GRAND FORKS    MOSUNNY   63  35  35 N8        30.15S
FARGO          SUNNY     64  40  41 NW10      30.14S
BUFFALO SD       N/A     60  32  34 VRB3      30.17F
RAPID CITY     SUNNY     57  28  33 S14G20    30.24F
$$

REGIONAL REPORTS...WYOMING/IDAHO/WASHINGTON

CITY           SKY/WX    TMP DP  RH WIND       PRES   REMARKS
GILLETTE       MOSUNNY   50  37  61 SE18      30.18S
SHERIDAN       MOSUNNY   56  39  53 E10       30.12F
BUFFALO WY       N/A     54  38  54 SE17      30.13F
CODY           MOSUNNY   52  41  66 CALM      30.10S
YELLOWSTONE LA   N/A     45  34  65 VRB5      30.16F
IDAHO FALLS    PTSUNNY   58  42  55 CALM      30.03F
SALMON         PTSUNNY   61  43  51 CALM      29.97F
BOISE          MOSUNNY   66  50  56 W3        29.91F
SPOKANE        MOSUNNY   70  42  36 E6        29.90S
$$

REGIONAL REPORTS...ALBERTA

CITY           SKY/WX    TMP DP  RH WIND       PRES   REMARKS
CALGARY        MOSUNNY   63  28  27 SE14G20   30.03F
$$

REGIONAL REPORTS...SASKATCHEWAN

CITY           SKY/WX    TMP DP  RH WIND       PRES   REMARKS
SASKATOON      SUNNY     72  30  21 S3        30.17S
$$



USA.gov is the U.S. government's official web portal to all federal, state and local government web resources and services.